M/V Crosby Hustler — WDA3941 — position and weather

sailwx.info

Track history (hours):
 
Tides and Currents Weather Stations Pressure Air Temp Water Temp Dewpoint Dewpoint Depression Visibility Wind Speed Wind Dir Waves Ship Positions

M/V Crosby Hustler

Owner: CROSBY INLAND MARINE LLC, GOLDEN MEADOW, LA. More information available from US FCC via Universal Licensing System and Coast Guard Vessel Documentation Center.

Last reported at 2014-Oct-26 06:18 UTC. Time now 2014-Oct-26 07:44 UTC.
Position N 29°47' W 095°04'.

Length 18 m; draft 9 m.

Type: Tug. MMSI: 366804030.

Date/timePositionNaut miles runAvg speedWind from/ knotsBaromVisibWave heightAir tempDewpointWater temp
2014-Oct-26 06:18N 29°47' W 095°04'4 5.2
2014-Oct-26 05:29N 29°44' W 095°08'4 4.7
2014-Oct-26 04:32N 29°43' W 095°13'1 0.1
2014-Oct-25 12:26N 29°43' W 095°15'2 2.4
2014-Oct-25 11:33N 29°44' W 095°12'5 5.4
2014-Oct-25 10:33N 29°45' W 095°06'2 0.5
2014-Oct-25 06:22N 29°47' W 095°06'0 0.0
2014-Oct-24 06:31N 29°47' W 095°06'0 0.0
2014-Oct-24 00:13N 29°47' W 095°06'1 0.6
2014-Oct-23 23:23N 29°46' W 095°06'0 0.0
2014-Oct-23 22:17N 29°46' W 095°06'0 0.0
2014-Oct-23 21:20N 29°46' W 095°06'0 0.0
2014-Oct-23 00:25N 29°46' W 095°06'0 0.0
2014-Oct-22 21:13N 29°46' W 095°06'1 1.6
2014-Oct-22 20:33N 29°46' W 095°05'5 5.2
2014-Oct-22 19:34N 29°42' W 095°01'5 5.4
2014-Oct-22 18:33N 29°38' W 094°58'6 5.8
2014-Oct-22 17:34N 29°33' W 094°54'6 5.5
2014-Oct-22 16:33N 29°28' W 094°51'  
2014-Oct-20 00:31N 29°29' W 094°52'6 6.5
2014-Oct-19 23:33N 29°35' W 094°56'7 6.6
2014-Oct-19 22:33N 29°41' W 094°59'6 5.9
2014-Oct-19 21:33N 29°45' W 095°04'3 0.2
2014-Oct-19 09:29N 29°48' W 095°04'0 0.0
2014-Oct-19 07:08N 29°48' W 095°04'0 0.0
2014-Oct-19 06:29N 29°48' W 095°04'0 0.0
2014-Oct-18 15:08N 29°48' W 095°04'3 4.9
2014-Oct-18 14:33N 29°45' W 095°06'7 5.6
2014-Oct-18 13:23N 29°43' W 095°13'2 0.2
2014-Oct-18 06:24N 29°43' W 095°15'0 0.0
2014-Oct-18 05:15N 29°43' W 095°15'1 0.1
2014-Oct-17 16:25N 29°43' W 095°14'4 4.3
2014-Oct-17 15:24N 29°44' W 095°09'3 3.6
2014-Oct-17 14:33N 29°46' W 095°06'1 0.8
2014-Oct-17 13:30N 29°47' W 095°06'0 0.0
2014-Oct-17 10:30N 29°47' W 095°06'0 0.0
2014-Oct-17 08:18N 29°47' W 095°06'0 0.0
2014-Oct-17 07:24N 29°47' W 095°06'0 0.0
2014-Oct-17 04:24N 29°47' W 095°06'0 0.0
2014-Oct-17 03:30N 29°47' W 095°06'0 0.0
2014-Oct-17 02:30N 29°47' W 095°06'0 0.0
2014-Oct-17 01:30N 29°47' W 095°06'0 0.0
2014-Oct-17 00:33N 29°47' W 095°06'1 0.2
2014-Oct-16 19:33N 29°46' W 095°05'2 0.3
2014-Oct-16 13:22N 29°48' W 095°04'0 0.0
2014-Oct-16 12:19N 29°48' W 095°04'0 0.0
2014-Oct-16 10:31N 29°48' W 095°04'0 0.0
2014-Oct-16 09:28N 29°48' W 095°04'0 0.0
2014-Oct-16 08:22N 29°48' W 095°04'  
Track history (hours):
 
Tides and Currents Weather Stations Pressure Air Temp Water Temp Dewpoint Dewpoint Depression Visibility Wind Speed Wind Dir Waves Ship Positions

M/V Crosby Hustler

Owner: CROSBY INLAND MARINE LLC, GOLDEN MEADOW, LA. More information available from US FCC via Universal Licensing System and Coast Guard Vessel Documentation Center.

Last reported at 2014-Oct-26 06:18 UTC. Time now 2014-Oct-26 07:44 UTC.
Position N 29°47' W 095°04'.

Length 18 m; draft 9 m.

Type: Tug. MMSI: 366804030.

Date/timePositionNaut miles runAvg speedWind from/ knotsBaromVisibWave heightAir tempDewpointWater temp
2014-Oct-26 06:18N 29°47' W 095°04'4 5.2
2014-Oct-26 05:29N 29°44' W 095°08'4 4.7
2014-Oct-26 04:32N 29°43' W 095°13'1 0.1
2014-Oct-25 12:26N 29°43' W 095°15'2 2.4
2014-Oct-25 11:33N 29°44' W 095°12'5 5.4
2014-Oct-25 10:33N 29°45' W 095°06'2 0.5
2014-Oct-25 06:22N 29°47' W 095°06'0 0.0
2014-Oct-24 06:31N 29°47' W 095°06'0 0.0
2014-Oct-24 00:13N 29°47' W 095°06'1 0.6
2014-Oct-23 23:23N 29°46' W 095°06'0 0.0
2014-Oct-23 22:17N 29°46' W 095°06'0 0.0
2014-Oct-23 21:20N 29°46' W 095°06'0 0.0
2014-Oct-23 00:25N 29°46' W 095°06'0 0.0
2014-Oct-22 21:13N 29°46' W 095°06'1 1.6
2014-Oct-22 20:33N 29°46' W 095°05'5 5.2
2014-Oct-22 19:34N 29°42' W 095°01'5 5.4
2014-Oct-22 18:33N 29°38' W 094°58'6 5.8
2014-Oct-22 17:34N 29°33' W 094°54'6 5.5
2014-Oct-22 16:33N 29°28' W 094°51'  
2014-Oct-20 00:31N 29°29' W 094°52'6 6.5
2014-Oct-19 23:33N 29°35' W 094°56'7 6.6
2014-Oct-19 22:33N 29°41' W 094°59'6 5.9
2014-Oct-19 21:33N 29°45' W 095°04'3 0.2
2014-Oct-19 09:29N 29°48' W 095°04'0 0.0
2014-Oct-19 07:08N 29°48' W 095°04'0 0.0
2014-Oct-19 06:29N 29°48' W 095°04'0 0.0
2014-Oct-18 15:08N 29°48' W 095°04'3 4.9
2014-Oct-18 14:33N 29°45' W 095°06'7 5.6
2014-Oct-18 13:23N 29°43' W 095°13'2 0.2
2014-Oct-18 06:24N 29°43' W 095°15'0 0.0
2014-Oct-18 05:15N 29°43' W 095°15'1 0.1
2014-Oct-17 16:25N 29°43' W 095°14'4 4.3
2014-Oct-17 15:24N 29°44' W 095°09'3 3.6
2014-Oct-17 14:33N 29°46' W 095°06'1 0.8
2014-Oct-17 13:30N 29°47' W 095°06'0 0.0
2014-Oct-17 10:30N 29°47' W 095°06'0 0.0
2014-Oct-17 08:18N 29°47' W 095°06'0 0.0
2014-Oct-17 07:24N 29°47' W 095°06'0 0.0
2014-Oct-17 04:24N 29°47' W 095°06'0 0.0
2014-Oct-17 03:30N 29°47' W 095°06'0 0.0
2014-Oct-17 02:30N 29°47' W 095°06'0 0.0
2014-Oct-17 01:30N 29°47' W 095°06'0 0.0
2014-Oct-17 00:33N 29°47' W 095°06'1 0.2
2014-Oct-16 19:33N 29°46' W 095°05'2 0.3
2014-Oct-16 13:22N 29°48' W 095°04'0 0.0
2014-Oct-16 12:19N 29°48' W 095°04'0 0.0
2014-Oct-16 10:31N 29°48' W 095°04'0 0.0
2014-Oct-16 09:28N 29°48' W 095°04'0 0.0
2014-Oct-16 08:22N 29°48' W 095°04'  

Dump ship's entire track history